Location: Morlupo
(42.1333°N, 12.5000°E)
Time: 10:18:11
(UTC+00:00)

Daily predictions for brighter satellites

Satellite Brightness Start Highest point End
(mag) Time Altitude Azimuth Time Altitude Azimuth Time Altitude Azimuth
Cosmos 2084 Rocket 4.1 17:34:25 10° NNW 17:38:37 41° NE 17:42:54 10° ESE
COSMO-SKYMED 1 3.2 17:34:46 10° N 17:39:04 62° WNW 17:43:20 10° SSW
H-2A R/B 2.6 17:34:58 10° SE 17:39:27 36° ENE 17:44:01 10° N
ARGOS 4.0 17:35:17 10° SE 17:39:52 30° ENE 17:44:28 10° N
Cosmos 158 Rocket 4.0 17:35:52 10° NNW 17:41:10 82° ENE 17:46:17 10° SSE
CENTAUR R/B 4.5 17:37:57 10° NNW 17:43:52 23° NNE 17:50:14 10° ENE
CZ-2C R/B 4.0 17:41:05 10° NE 17:44:54 19° E 17:48:45 10° SE
ATLAS 5 CENTAUR R/B 2.5 17:42:16 10° NNW 17:45:11 57° NE 17:53:40 10° SE
Cosmos 1743 3.6 17:41:54 10° SSW 17:45:39 54° W 17:49:25 10° N
SL-16 R/B 3.8 17:40:28 10° NW 17:45:41 38° WSW 17:50:51 10° S
Iridium 4 Rocket 3.4 17:41:34 10° S 17:46:20 68° E 17:51:36 10° N
Cosmos 1707 4.2 17:44:26 10° NNE 17:47:08 18° ENE 17:49:50 10° ESE
Sich 1 Rocket 4.4 17:43:54 10° SSE 17:47:49 30° E 17:51:47 10° NNE
ATLAS CENTAUR R/B 4.3 17:51:29 10° NW 17:52:25 11° NW 17:53:19 10° NNW
Cosmos 2263 Rocket 2.1 17:48:49 10° SSW 17:54:22 81° ESE 17:59:58 10° NNE
Meteor 2-9 Rocket 4.3 17:51:25 10° S 17:57:15 72° E 18:03:02 10° NNE
DELTA 2 R/B (1) 3.9 17:53:19 10° W 17:58:46 60° SSW 18:03:49 12° ESE
Cosmos 1844 Rocket 3.9 17:58:18 10° SE 18:02:04 19° E 18:05:51 10° ENE
CZ-2C R/B 3.1 17:57:08 10° SSE 18:02:17 78° ENE 18:07:47 10° N
SJ 16-02 3.1 17:59:04 10° SW 18:03:07 37° WNW 18:07:12 10° N
Cosmos 990 Rocket 4.3 17:58:13 10° SSW 18:03:20 70° WNW 18:08:29 10° NNE
Cosmos 2227 4.4 17:58:13 10° SSW 18:03:57 80° WNW 18:09:43 10° NNE
Cosmos 1464 Rocket 4.4 17:58:41 10° SSE 18:04:16 39° E 18:09:55 10° NNE
ISS -3.3 18:02:19 10° SSW 18:05:30 41° SE 18:08:15 13° ENE
Okean 2 Rocket 3.8 18:04:04 10° SSE 18:08:03 32° E 18:12:01 10° NNE
Abrixas rocket 3.5 18:06:05 10° WNW 18:08:38 29° NNW 18:11:11 10° NE
SJ-11-01 4.2 18:03:59 10° SSE 18:08:41 74° ENE 18:13:23 10° N
Okean-O 4.0 18:06:46 10° S 18:10:58 42° W 18:15:13 10° NNW
Cosmos 1943 3.2 18:06:10 10° NNW 18:11:51 79° ENE 18:17:30 10° SSE
Lacrosse 5 rocket 3.8 18:10:01 10° WNW 18:13:07 19° NNW 18:16:21 10° NNE
Ariane Rocket 3.6 18:09:46 11° SE 18:14:10 35° ENE 18:18:45 10° N
NOSS 2-2 (C) 2.9 18:15:55 10° SSW 18:19:25 68° ESE 18:23:07 10° NE
Cosmos 1437 2.8 18:16:40 10° NNW 18:19:39 71° W 18:22:37 10° S
Cosmos 1300 Rocket 3.9 18:17:10 10° SSE 18:21:17 42° E 18:25:29 10° NNE
CSL-04 Debris 4.4 18:16:40 10° S 18:22:02 73° WSW 18:27:26 10° NNW
Meteor 1-21 4.3 18:17:05 10° NNW 18:22:42 84° W 18:28:17 10° S
YAOGAN 1 4.0 18:22:32 10° SSW 18:26:35 39° W 18:30:40 10° NNW
HJ-1C 4.0 18:25:50 10° S 18:29:03 57° W 18:32:19 10° NNW
Cosmos 1603 4.2 18:25:38 10° NNW 18:31:13 62° WSW 18:36:44 10° S
CSL-04 Rocket 4.2 18:26:27 10° S 18:31:46 63° WSW 18:37:13 10° NNW
Cosmos 1891 Rocket 4.4 18:25:48 10° S 18:31:55 70° E 18:37:57 10° NNE
Cosmos 1867 3.6 18:29:53 10° NNW 18:35:20 63° NE 18:38:36 24° SE
Cosmos 1536 Rocket 4.0 18:35:41 10° N 18:39:53 40° ENE 18:41:16 31° ESE
USA 234 3.3 18:36:32 10° NE 18:42:55 53° SE 18:49:17 10° SSW
DMSP B5D2-2 4.1 18:42:55 10° NNE 18:48:08 56° E 18:53:18 10° S
CZ-4 R/B 4.3 18:45:58 10° SW 18:48:56 19° W 18:51:55 10° NW
Cosmos 2151 Rocket 3.5 18:44:46 10° S 18:49:08 63° E 18:53:35 10° NNE
Cosmos 372 Rocket 4.0 18:44:17 10° SSW 18:49:32 87° WNW 18:54:48 10° NNE
USA 186 1.6 18:48:48 47° S 18:49:35 88° W 18:52:47 10° NNW
STPSAT 2 (USA 217) 4.5 18:45:19 10° NNW 18:49:49 85° ENE 18:52:03 30° SSE
Cosmos 2150 Rocket 4.0 18:46:41 10° S 18:51:56 62° ESE 18:57:18 10° NNE
Cosmos 1025 Rocket 2.9 18:49:31 10° N 18:53:55 78° E 18:56:09 29° SSE
OBJECT-B 2.3 19:01:23 27° NNE 19:01:23 27° NNE 19:03:10 10° N
Nadezhda 4 Rocket 3.8 18:54:41 10° N 19:00:49 71° E 19:04:41 24° SSE
Cosmos 2034 Rocket 3.9 18:54:41 10° S 19:01:03 79° E 19:07:25 10° N
Cosmos 1125 Rocket 3.6 18:57:49 10° S 19:02:55 51° ESE 19:08:04 10° NNE
FREGAT/IRIS 4.2 19:05:31 26° NNW 19:05:31 26° NNW 19:06:50 10° NNW
Exosat Rocket 3.7 18:58:38 10° S 19:04:24 52° ESE 19:09:16 10° NNE
CZ-2C R/B 2.6 19:02:41 10° WSW 19:04:39 21° SSW 19:04:39 21° SSW
Cosmos 1674 3.4 19:06:54 10° N 19:09:42 41° NNE 19:09:42 41° NNE
Meteor 1-24 Rocket 4.5 19:09:44 10° N 19:14:11 33° ENE 19:14:11 33° ENE
In-Cosmos 22 4.4 19:12:33 10° NNW 19:17:48 65° W 19:21:24 21° S
Resurs 01 Rocket 2.4 19:19:17 37° NE 19:19:17 37° NE 19:22:33 10° N
H-2A R/B 4.0 19:14:50 10° SSW 19:18:56 26° W 19:23:09 10° NW
Cosmos 468 4.4 19:13:52 10° NNW 19:19:14 81° ENE 19:20:21 57° SSE
ATLAS 2AS CENTAUR R/B 4.1 19:13:47 10° S 19:24:48 25° ENE 19:28:05 10° NE
SJ-6B 3.4 19:21:47 45° SW 19:22:20 50° W 19:26:00 10° NNW
CZ-2C R/B 3.2 19:20:07 10° N 19:25:34 61° WNW 19:31:04 10° SSW
Cosmos 1844 3.6 19:27:39 10° SSW 19:33:23 88° ESE 19:39:04 10° NNE
Cosmos 1048 Rocket 4.0 19:28:04 10° NNW 19:33:24 80° WSW 19:34:11 65° S
Cosmos 1634 Rocket 3.8 19:34:23 63° ESE 19:34:41 64° E 19:40:48 10° NNE
ARIANE 5 R/B 4.3 19:37:43 23° NNE 19:37:43 23° NNE 19:39:39 10° N
CENTAUR R/B 3.3 19:28:12 10° NNW 19:36:15 62° NE 19:38:32 48° ESE
Cosmos 2285 Rocket 3.9 19:33:14 10° SSW 19:39:32 87° ESE 19:45:54 10° NNE
Milstar 3 Cent rocket 4.3 19:38:50 10° SSW 19:39:33 12° SSW 19:39:33 12° SSW
ATLAS 3B R/B 3.9 19:36:07 10° NNW 19:41:51 27° NE 19:42:49 27° NE
ISS -1.4 19:39:20 10° W 19:41:14 24° WNW 19:41:14 24° WNW
USA 238 DEB 3.8 19:36:43 10° NW 19:44:01 90° NE 19:45:38 60° SE
USA 238 3.8 19:36:49 10° NW 19:44:08 89° NE 19:45:43 60° SE
Cosmos 1844 Rocket 3.1 19:39:55 10° SW 19:45:24 60° WNW 19:50:57 10° NNE
Okean 1 Rocket 4.0 19:51:22 45° NNW 19:51:22 45° NNW 19:54:42 10° N
Cosmos 1627 Rocket 4.4 19:46:41 10° N 19:53:06 88° E 19:53:34 79° SSE
Lacrosse 5 rocket 4.2 19:52:13 10° NNW 19:53:52 12° N 19:55:13 11° NNE
Cosmos 1092 Rocket 4.2 19:53:05 10° NNW 19:59:11 67° W 20:00:15 57° SW
SPOT 3 Rocket 4.1 20:03:38 51° W 20:03:38 51° W 20:08:38 10° NNW
Cosmos 2026 Rocket 4.0 20:00:24 10° N 20:06:46 78° W 20:06:56 78° WSW
Cosmos 1833 Rocket 4.1 20:04:26 10° N 20:07:47 28° NNE 20:07:47 28° NNE
NOSS 3-2 (A) 4.3 20:04:44 10° NW 20:12:20 62° WSW 20:13:57 53° SSW
Terra 4.3 20:19:12 13° NNE 20:19:12 13° NNE 20:19:51 10° N
USA 234 3.9 20:19:36 10° NE 20:25:53 51° NNW 20:32:10 10° WSW
NOSS 3-2 (C) 4.4 20:38:55 10° NW 20:46:11 58° WSW 20:46:11 58° WSW
Cosmos 2082 Rocket 4.0 20:44:13 10° NNW 20:46:33 23° N 20:46:33 23° N
Resurs 01 Rocket 4.5 20:56:50 14° WNW 20:56:50 14° WNW 20:58:03 10° NW
ATLAS 2AS CENTAUR R/B 3.5 21:03:56 10° SW 21:11:59 56° NW 21:19:28 10° NNE
CENTAUR R/B 4.2 21:19:21 10° NW 21:25:44 37° W 21:25:44 37° W
ATLAS 3B R/B 4.0 21:26:20 10° NW 21:30:03 35° NW 21:30:03 35° NW
